Location: Bonnesvalyn
(49.1218°N, 3.3177°E)
Time: 13:11:21
(UTC+00:00)

Cosmos 1726 Rocket - Pass Details

Date: 09 February 2023
Orbit: 602 x 627 km, 82.5° (Epoch: 23 March)

Event Time Altitude Azimuth Distance (km) Brightness Sun altitude
Rises 17:21:26 0° 351° (N) 2,867 6.9 -4.7°
Reaches altitude 10° 17:23:40 10° 353° (N) 1,960 6.0 -5.0°
Maximum altitude 17:28:00 76° 80° (E) 628 3.5 -5.7°
Drops below altitude 10° 17:32:19 10° 166° (SSE) 1,952 6.2 -6.4°
Sets 17:34:31 0° 168° (SSE) 2,854 7.0 -6.8°
